Location: El Bakhil
(32.7726°N, 5.5387°W)
Time: 02:27:28
(UTC+00:00)

N. Korean satellite - Pass Details

Date: 10 December 2021
Orbit: 447 x 491 km, 97.3° (Epoch: 24 January)

Event Time Altitude Azimuth Distance (km) Brightness Sun altitude
Exits shadow 05:12:00 - 26° (NNE) 1,727 9.5 -24.9°
Reaches altitude 10° 05:12:22 10° 28° (NNE) 1,577 9.3 -24.8°
Maximum altitude 05:15:34 40° 99° (E) 677 7.7 -24.2°
Drops below altitude 10° 05:18:46 10° 170° (S) 1,578 9.4 -23.5°
Sets 05:20:52 0° 178° (S) 2,452 10.3 -23.1°
